Weather History for Rochester, NH

Change the Weather History Date:

Wednesday, February 13, 2013

  Actual Average (KSFM) Record (KSFM)
Temperature  
Mean Temperature 34 °F -  
Max Temperature 41 °F 31 °F 44 °F (1999)
Min Temperature 28 °F 12 °F -5 °F (2007)
Degree Days  
Heating Degree Days 30    
Moisture  
Dew Point 20 °F    
Average Humidity 57    
Maximum Humidity 72    
Minimum Humidity 41    
Precipitation  
Precipitation 0.00 in - - ()
Sea Level Pressure  
Sea Level Pressure 29.77 in    
Wind  
Wind Speed 5 mph (NW)    
Max Wind Speed 14 mph    
Max Gust Speed 21 mph    
Visibility 10 miles    
Events      
Averages and records for this station are not official NWS values.
T = Trace of Precipitation, MM = Missing Value Source: NWS Daily Summary

Daily Weather History Graph

Daily Weather History Graph

Search for Another Location

Airport:

Trip Planner

Search our weather history database for the weather conditions in past years. The results will help you decide how hot, cold, wet, or windy it might be!

Date:

Astronomy

Feb. 13, 2013 Rise Set
Actual Time 6:44 AM EST 5:12 PM EST
Civil Twilight 6:14 AM EST 5:41 PM EST
Nautical Twilight 5:41 AM EST 6:15 PM EST
Astronomical Twilight 5:08 AM EST 6:48 PM EST
Moon 8:04 AM EST (2/13) 9:20 PM EST (2/13)
Length of Visible Light 11h 26m
Length of Day
10h 28m
Waxing Crescent, 13% of the Moon is Illuminated
Feb 13
Waxing Crescent
Feb 17
First Quarter
Feb 25
Full
Mar 4
Last Quarter
Mar 11
New

Hourly Weather History & Observations

Time (EST) Temp. Windchill Dew Point Humidity Pressure Visibility Wind Dir Wind Speed Gust Speed Precip Events Conditions
12:51 AM 34.0 °F 31.0 °F 23.0 °F 64% 29.78 in 10.0 mi Variable 3.5 mph - N/A   Clear
1:51 AM 34.0 °F 27.2 °F 21.9 °F 61% 29.78 in 10.0 mi WNW 8.1 mph - N/A   Clear
2:51 AM 33.1 °F 23.4 °F 21.0 °F 61% 29.76 in 10.0 mi WNW 13.8 mph 20.7 mph N/A   Clear
3:51 AM 32.0 °F 24.8 °F 19.9 °F 61% 29.78 in 10.0 mi WNW 8.1 mph - N/A   Clear
4:51 AM 32.0 °F 28.7 °F 19.9 °F 61% 29.80 in 10.0 mi West 3.5 mph - N/A   Clear
5:51 AM 30.9 °F 27.5 °F 19.0 °F 61% 29.81 in 10.0 mi West 3.5 mph - N/A   Clear
6:51 AM 28.9 °F - 19.0 °F 67% 29.81 in 10.0 mi Calm Calm - N/A   Clear
7:51 AM 30.9 °F - 19.9 °F 64% 29.83 in 10.0 mi Calm Calm - N/A   Clear
8:51 AM 34.0 °F 28.0 °F 19.9 °F 56% 29.82 in 10.0 mi WNW 6.9 mph - N/A   Clear
9:51 AM 36.0 °F 29.6 °F 19.9 °F 52% 29.81 in 10.0 mi NW 8.1 mph - N/A   Clear
10:51 AM 37.0 °F 31.0 °F 19.9 °F 50% 29.80 in 10.0 mi WNW 8.1 mph - N/A   Scattered Clouds
11:51 AM 37.9 °F 31.5 °F 21.0 °F 51% 29.78 in 10.0 mi NW 9.2 mph - N/A   Clear
12:51 PM 39.0 °F 34.0 °F 21.0 °F 49% 29.77 in 10.0 mi NNW 6.9 mph - N/A   Clear
1:51 PM 39.9 °F - 19.0 °F 43% 29.76 in 10.0 mi Calm Calm - N/A   Scattered Clouds
2:51 PM 41.0 °F 37.1 °F 19.0 °F 41% 29.75 in 10.0 mi WNW 5.8 mph - N/A   Overcast
3:51 PM 39.0 °F - 19.0 °F 45% 29.74 in 10.0 mi Calm Calm - N/A   Mostly Cloudy
4:51 PM 37.9 °F 32.7 °F 18.0 °F 45% 29.74 in 10.0 mi Variable 6.9 mph - N/A   Mostly Cloudy
5:51 PM 35.1 °F - 18.0 °F 50% 29.75 in 10.0 mi Calm Calm - N/A   Clear
6:51 PM 33.1 °F - 18.0 °F 54% 29.74 in 10.0 mi Calm Calm - N/A   Clear
7:51 PM 28.9 °F 25.2 °F 19.0 °F 67% 29.74 in 10.0 mi NNW 3.5 mph - N/A   Clear
8:51 PM 30.9 °F - 18.0 °F 59% 29.74 in 10.0 mi Calm Calm - N/A   Partly Cloudy
9:51 PM 28.9 °F 23.9 °F 19.0 °F 67% 29.74 in 10.0 mi NW 4.6 mph - N/A   Overcast
10:51 PM 28.0 °F 22.8 °F 19.9 °F 72% 29.73 in 10.0 mi NNW 4.6 mph - N/A   Scattered Clouds
11:51 PM 30.0 °F 24.1 °F 19.0 °F 64% 29.72 in 10.0 mi NW 5.8 mph - N/A   Overcast